KD0RII Weather Reports


time (UTC)temp
C
wind
direction
speed
KPH
gust
KPH
rain 1hr
cm
rain 24hr
cm
rain mn
cm
humidity
%
barometer
mb
20260906183851 40 68 0.0 0.0 0.00 0.00 0.00 38 1015.8
20260906183348 40 90 0.0 0.0 0.00 0.00 0.00 38 1015.7
20260906182847 40 76 0.0 0.0 0.00 0.00 0.00 38 1015.7
20260906182337 40 88 0.0 0.0 0.00 0.00 0.00 38 1016.0
20260906181832 40 132 0.0 1.6 0.00 0.00 0.00 38 1016.2
20260906181329 39 91 0.0 0.0 0.00 0.00 0.00 39 1016.0
20260906180824 38 86 0.0 0.0 0.00 0.00 0.00 39 1016.4
20260906180318 38 74 0.0 0.0 0.00 0.00 0.00 39 1016.5
20260906175816 38 98 0.0 0.0 0.00 0.00 0.00 39 1016.4
20260906175311 38 81 0.0 0.0 0.00 0.00 0.00 39 1016.7
20260906174810 38 87 0.0 0.0 0.00 0.00 0.00 40 1016.9
20260906174304 39 118 0.0 0.0 0.00 0.00 0.00 39 1016.9
20260906173759 38 92 0.0 0.0 0.00 0.00 0.00 40 1017.1
20260906173255 38 76 0.0 0.0 0.00 0.00 0.00 40 1017.0
20260906172753 38 86 0.0 1.6 0.00 0.00 0.00 39 1017.0
20260906172249 38 92 0.0 0.0 0.00 0.00 0.00 42 1017.2
20260906171744 38 87 0.0 0.0 0.00 0.00 0.00 41 1017.2
20260906171240 39 72 0.0 0.0 0.00 0.00 0.00 41 1017.2
20260906170735 39 67 0.0 0.0 0.00 0.00 0.00 40 1017.3
20260906170231 38 75 0.0 0.0 0.00 0.00 0.00 40 1017.3
20260906165727 38 89 0.0 0.0 0.00 0.00 0.00 43 1017.5
20260906165227 38 86 0.0 0.0 0.00 0.00 0.00 42 1017.1
20260906164721 38 89 0.0 0.0 0.00 0.00 0.00 41 1017.3
20260906164216 38 90 0.0 0.0 0.00 0.00 0.00 41 1017.4
20260906163712 38 93 0.0 0.0 0.00 0.00 0.00 41 1017.3
20260906163208 38 90 0.0 0.0 0.00 0.00 0.00 41 1017.6
20260906162705 37 96 0.0 0.0 0.00 0.00 0.00 41 1017.4
20260906162205 38 58 0.0 0.0 0.00 0.00 0.00 40 1017.5
20260906161659 38 86 0.0 0.0 0.00 0.00 0.00 41 1017.5
20260906161158 37 102 0.0 0.0 0.00 0.00 0.00 41 1017.4
20260906160657 37 98 0.0 0.0 0.00 0.00 0.00 40 1017.6
20260906160157 37 92 0.0 0.0 0.00 0.00 0.00 41 1017.5
20260906155654 37 96 0.0 0.0 0.00 0.00 0.00 42 1017.5
20260906155150 37 89 0.0 0.0 0.00 0.00 0.00 42 1017.4
20260906154644 38 91 0.0 0.0 0.00 0.00 0.00 41 1017.4
20260906154139 38 107 0.0 0.0 0.00 0.00 0.00 40 1017.3
20260906153637 39 105 0.0 0.0 0.00 0.00 0.00 39 1017.3
20260906153132 38 99 0.0 0.0 0.00 0.00 0.00 40 1017.4
20260906152627 37 90 0.0 0.0 0.00 0.00 0.00 42 1017.2
20260906152121 37 120 0.0 0.0 0.00 0.00 0.00 43 1017.2
20260906151616 36 75 0.0 0.0 0.00 0.00 0.00 47 1017.1
20260906151112 36 91 0.0 0.0 0.00 0.00 0.00 49 1017.0
20260906150607 35 108 0.0 0.0 0.00 0.00 0.00 50 1016.9
20260906145601 34 72 0.0 0.0 0.00 0.00 0.00 55 1017.0
20260906145056 33 93 0.0 0.0 0.00 0.00 0.00 57 1017.1
20260906144550 33 82 0.0 0.0 0.00 0.00 0.00 58 1017.0
20260906144046 33 85 0.0 0.0 0.00 0.00 0.00 58 1017.3
20260906143541 32 87 0.0 0.0 0.00 0.00 0.00 58 1017.0
20260906143038 32 83 0.0 0.0 0.00 0.00 0.00 60 1017.1
20260906142537 31 90 0.0 0.0 0.00 0.00 0.00 62 1017.1
20260906142032 30 93 0.0 0.0 0.00 0.00 0.00 65 1017.3
20260906141531 30 82 0.0 0.0 0.00 0.00 0.00 67 1017.4
20260906141027 30 103 0.0 0.0 0.00 0.00 0.00 65 1017.3
20260906140526 29 93 0.0 0.0 0.00 0.00 0.00 66 1017.2
20260906140025 28 87 0.0 0.0 0.00 0.00 0.00 68 1017.2
20260906135522 27 71 0.0 0.0 0.00 0.00 0.00 71 1017.2
20260906135019 27 77 0.0 0.0 0.00 0.00 0.00 72 1017.2
20260906134514 27 92 0.0 0.0 0.00 0.00 0.00 76 1017.1
20260906134014 26 80 0.0 0.0 0.00 0.00 0.00 77 1017.0
20260906133510 25 84 0.0 0.0 0.00 0.00 0.00 82 1016.9
20260906133005 25 82 0.0 0.0 0.00 0.00 0.00 85 1017.2
20260906132501 24 84 0.0 0.0 0.00 0.00 0.00 89 1017.1
20260906131955 23 81 0.0 0.0 0.00 0.00 0.00 91 1017.1
20260906131451 23 83 0.0 0.0 0.00 0.00 0.00 92 1016.9
20260906130947 22 95 0.0 0.0 0.00 0.00 0.00 92 1016.7
20260906130445 22 92 0.0 0.0 0.00 0.00 0.00 92 1016.9
20260906125941 22 92 0.0 0.0 0.00 0.00 0.00 93 1016.9
20260906125438 22 95 0.0 0.0 0.00 0.00 0.00 93 1016.7
20260906124938 22 90 0.0 0.0 0.00 0.00 0.00 93 1016.4
20260906124433 21 90 0.0 0.0 0.00 0.00 0.00 92 1016.3
20260906123928 21 92 0.0 0.0 0.00 0.00 0.00 92 1016.2
20260906123427 21 93 0.0 0.0 0.00 0.00 0.00 92 1016.1
20260906122921 21 92 0.0 0.0 0.00 0.00 0.00 92 1016.0
20260906122416 20 92 0.0 0.0 0.00 0.00 0.00 92 1016.2
20260906121914 20 92 0.0 0.0 0.00 0.00 0.00 92 1016.0
20260906121409 20 87 0.0 0.0 0.00 0.00 0.00 92 1016.2
20260906120905 20 87 0.0 0.0 0.00 0.00 0.00 92 1016.2
20260906120401 20 87 0.0 0.0 0.00 0.00 0.00 92 1016.0
20260906115856 20 87 0.0 0.0 0.00 0.00 0.00 92 1015.9
20260906115352 20 87 0.0 0.0 0.00 0.00 0.00 92 1015.8
20260906114851 20 87 0.0 0.0 0.00 0.00 0.00 92 1015.9
20260906114346 20 87 0.0 0.0 0.00 0.00 0.00 92 1015.8
20260906113841 20 87 0.0 0.0 0.00 0.00 0.00 92 1015.7
20260906113340 20 87 0.0 0.0 0.00 0.00 0.00 91 1015.6
20260906112836 20 87 0.0 0.0 0.00 0.00 0.00 91 1015.9
20260906112332 20 87 0.0 0.0 0.00 0.00 0.00 91 1016.0
20260906111831 20 87 0.0 0.0 0.00 0.00 0.00 91 1015.9
20260906111326 20 87 0.0 0.0 0.00 0.00 0.00 91 1015.8
20260906110821 21 86 0.0 0.0 0.00 0.00 0.00 91 1015.9
20260906110317 20 85 0.0 0.0 0.00 0.00 0.00 91 1015.7
20260906105816 20 83 0.0 0.0 0.00 0.00 0.00 91 1015.6
20260906105312 20 92 0.0 0.0 0.00 0.00 0.00 91 1015.6
20260906104807 20 91 0.0 0.0 0.00 0.00 0.00 91 1015.8
20260906104305 21 91 0.0 0.0 0.00 0.00 0.00 91 1015.7
20260906103803 21 93 0.0 0.0 0.00 0.00 0.00 91 1015.8
20260906103258 21 92 0.0 0.0 0.00 0.00 0.00 91 1015.6
20260906102754 21 92 0.0 0.0 0.00 0.00 0.00 91 1015.9
20260906102252 21 91 0.0 0.0 0.00 0.00 0.00 91 1015.5
20260906101748 21 91 0.0 0.0 0.00 0.00 0.00 91 1015.8
20260906101243 21 91 0.0 0.0 0.00 0.00 0.00 90 1015.8
20260906100738 21 91 0.0 0.0 0.00 0.00 0.00 90 1015.7
20260906100237 21 91 0.0 0.0 0.00 0.00 0.00 90 1015.7
20260906095733 21 91 0.0 0.0 0.00 0.00 0.00 90 1015.7
20260906095228 21 91 0.0 0.0 0.00 0.00 0.00 90 1015.6
20260906094726 21 91 0.0 0.0 0.00 0.00 0.00 90 1015.6
20260906094217 21 91 0.0 0.0 0.00 0.00 0.00 90 1015.5
20260906093712 21 91 0.0 0.0 0.00 0.00 0.00 90 1015.6
20260906093208 21 91 0.0 0.0 0.00 0.00 0.00 90 1015.6
20260906092702 21 91 0.0 0.0 0.00 0.00 0.00 90 1015.5
20260906092156 21 92 0.0 0.0 0.00 0.00 0.00 90 1015.8
20260906091653 21 91 0.0 0.0 0.00 0.00 0.00 89 1015.4
20260906091149 21 92 0.0 0.0 0.00 0.00 0.00 89 1015.4
20260906090645 21 92 0.0 0.0 0.00 0.00 0.00 89 1015.3
20260906090144 22 92 0.0 0.0 0.00 0.00 0.00 89 1015.5
20260906085643 22 92 0.0 0.0 0.00 0.00 0.00 89 1015.3
20260906085137 22 92 0.0 0.0 0.00 0.00 0.00 89 1015.3
20260906084632 22 92 0.0 0.0 0.00 0.00 0.00 89 1015.4
20260906084131 22 92 0.0 0.0 0.00 0.00 0.00 89 1015.4
20260906083626 22 91 0.0 0.0 0.00 0.00 0.00 89 1015.3
20260906083121 22 91 0.0 0.0 0.00 0.00 0.00 88 1015.3
20260906082617 22 91 0.0 0.0 0.00 0.00 0.00 88 1015.2
20260906082112 22 91 0.0 0.0 0.00 0.00 0.00 88 1015.2
20260906081608 22 91 0.0 0.0 0.00 0.00 0.00 88 1015.2
20260906081103 22 91 0.0 0.0 0.00 0.00 0.00 88 1015.3
20260906080559 22 92 0.0 0.0 0.00 0.00 0.00 87 1015.3
20260906080055 22 92 0.0 0.0 0.00 0.00 0.00 87 1015.2
20260906075549 22 92 0.0 0.0 0.00 0.00 0.00 87 1015.1
20260906075044 22 92 0.0 0.0 0.00 0.00 0.00 87 1015.2
20260906074539 22 92 0.0 0.0 0.00 0.00 0.00 86 1015.3
20260906074037 22 92 0.0 0.0 0.00 0.00 0.00 86 1015.4
20260906073533 22 92 0.0 0.0 0.00 0.00 0.00 86 1015.4
20260906073029 22 92 0.0 0.0 0.00 0.00 0.00 85 1015.2
20260906072529 23 92 0.0 0.0 0.00 0.00 0.00 85 1015.3
20260906072026 23 92 0.0 0.0 0.00 0.00 0.00 85 1015.2
20260906071522 23 92 0.0 0.0 0.00 0.00 0.00 85 1015.1
20260906071017 23 92 0.0 0.0 0.00 0.00 0.00 85 1015.1
20260906070513 23 76 0.0 0.0 0.00 0.00 0.00 85 1015.2
20260906070008 23 87 0.0 0.0 0.00 0.00 0.00 85 1015.1
20260906065508 23 87 0.0 0.0 0.00 0.00 0.00 85 1015.3
20260906065003 23 87 0.0 0.0 0.00 0.00 0.00 85 1015.2
20260906064459 23 86 0.0 0.0 0.00 0.00 0.00 85 1015.5
20260906063954 23 86 0.0 0.0 0.00 0.00 0.00 86 1015.2
20260906063449 23 86 0.0 0.0 0.00 0.00 0.00 86 1015.5
20260906062944 23 86 0.0 0.0 0.00 0.00 0.00 86 1015.5
20260906062439 23 99 0.0 0.0 0.00 0.00 0.00 86 1015.3
20260906061933 23 99 0.0 0.0 0.00 0.00 0.00 86 1015.4
20260906061424 23 99 0.0 0.0 0.00 0.00 0.00 86 1015.1
20260906060918 23 99 0.0 0.0 0.00 0.00 0.00 85 1015.4
20260906060416 23 99 0.0 0.0 0.00 0.00 0.00 85 1015.6
20260906055912 23 99 0.0 0.0 0.00 0.00 0.00 85 1015.6
20260906055407 23 99 0.0 0.0 0.00 0.00 0.00 85 1015.6
20260906054903 23 99 0.0 0.0 0.00 0.00 0.00 85 1015.7
20260906054357 23 99 0.0 0.0 0.00 0.00 0.00 85 1015.6
20260906053853 23 99 0.0 0.0 0.00 0.00 0.00 85 1015.7
20260906053349 23 99 0.0 0.0 0.00 0.00 0.00 85 1015.9
20260906052844 23 99 0.0 0.0 0.00 0.00 0.00 85 1015.6
20260906052341 23 99 0.0 0.0 0.00 0.00 0.00 85 1015.8
20260906051837 23 99 0.0 0.0 0.00 0.00 0.00 85 1015.8
20260906051337 23 99 0.0 0.0 0.00 0.00 0.00 85 1015.9
20260906050833 23 99 0.0 0.0 0.00 0.00 0.00 84 1015.9
20260906050328 23 99 0.0 0.0 0.00 0.00 0.00 84 1015.9
20260906045826 24 100 0.0 0.0 0.00 0.00 0.00 84 1015.7
20260906045320 24 101 0.0 0.0 0.00 0.00 0.00 83 1015.6
20260906044817 24 93 0.0 0.0 0.00 0.00 0.00 82 1015.8
20260906044311 25 93 0.0 0.0 0.00 0.00 0.00 82 1015.8
20260906043807 25 93 0.0 0.0 0.00 0.00 0.00 82 1015.7
20260906043303 24 84 0.0 0.0 0.00 0.00 0.00 82 1015.4
20260906042757 24 86 0.0 0.0 0.00 0.00 0.00 83 1015.5
20260906042256 24 82 0.0 0.0 0.00 0.00 0.00 83 1015.6
20260906041752 24 99 0.0 0.0 0.00 0.00 0.00 83 1015.6
20260906041247 24 99 0.0 0.0 0.00 0.00 0.00 83 1015.3
20260906040742 25 99 0.0 0.0 0.00 0.00 0.00 82 1015.5
20260906040237 25 99 0.0 0.0 0.00 0.00 0.00 82 1015.3
20260906035733 25 100 0.0 0.0 0.00 0.00 0.00 82 1015.2
20260906035229 25 96 0.0 0.0 0.00 0.00 0.00 81 1015.4
20260906034728 25 95 0.0 0.0 0.00 0.00 0.00 80 1015.2
20260906034223 25 94 0.0 0.0 0.00 0.00 0.00 80 1015.2
20260906033719 25 95 0.0 0.0 0.00 0.00 0.00 79 1015.1
20260906033218 25 94 0.0 0.0 0.00 0.00 0.00 78 1015.1
20260906032716 25 94 0.0 0.0 0.00 0.00 0.00 78 1015.1
20260906032215 25 95 0.0 0.0 0.00 0.00 0.00 77 1014.9
20260906031710 25 94 0.0 0.0 0.00 0.00 0.00 77 1015.1
20260906031206 26 94 0.0 0.0 0.00 0.00 0.00 76 1014.8
20260906030706 26 95 0.0 0.0 0.00 0.00 0.00 76 1015.0
20260906030201 26 95 0.0 0.0 0.00 0.00 0.00 75 1015.0
20260906025700 26 95 0.0 0.0 0.00 0.00 0.00 75 1014.7
20260906025154 26 93 0.0 0.0 0.00 0.00 0.00 74 1014.7
20260906024649 27 93 0.0 0.0 0.00 0.00 0.00 73 1014.7
20260906024148 27 95 0.0 0.0 0.00 0.00 0.00 72 1014.5
20260906023644 27 93 0.0 0.0 0.00 0.00 0.00 71 1014.4
20260906023143 27 93 0.0 0.0 0.00 0.00 0.00 71 1014.3
20260906022639 27 93 0.0 0.0 0.00 0.00 0.00 70 1014.5
20260906022135 27 88 0.0 0.0 0.00 0.00 0.00 71 1014.2
20260906021630 27 86 0.0 0.0 0.00 0.00 0.00 72 1014.3
20260906021128 27 93 0.0 0.0 0.00 0.00 0.00 71 1014.3
20260906020623 27 90 0.0 0.0 0.00 0.00 0.00 72 1014.1
20260906020118 27 92 0.0 0.0 0.00 0.00 0.00 72 1014.1
20260906015613 27 89 0.0 0.0 0.00 0.00 0.00 71 1013.9
20260906015111 27 89 0.0 0.0 0.00 0.00 0.00 71 1013.8
20260906014606 27 89 0.0 0.0 0.00 0.00 0.00 71 1013.7
20260906014103 27 75 0.0 0.0 0.00 0.00 0.00 69 1013.8
20260906013557 27 89 0.0 0.0 0.00 0.00 0.00 68 1013.6
20260906013053 27 89 0.0 0.0 0.00 0.00 0.00 67 1013.5
20260906012548 28 89 0.0 0.0 0.00 0.00 0.00 66 1013.5
20260906012047 28 89 0.0 0.0 0.00 0.00 0.00 65 1013.2
20260906011544 28 89 0.0 0.0 0.00 0.00 0.00 64 1013.5
20260906011043 28 89 0.0 0.0 0.00 0.00 0.00 62 1013.2
20260906010539 29 89 0.0 0.0 0.00 0.00 0.00 62 1013.6
20260906010035 29 89 0.0 0.0 0.00 0.00 0.00 61 1013.2
20260906005534 30 89 0.0 0.0 0.00 0.00 0.00 59 1013.1
20260906005032 30 89 0.0 0.0 0.00 0.00 0.00 58 1013.2
20260906004527 30 89 0.0 0.0 0.00 0.00 0.00 57 1013.5
20260906004021 31 89 0.0 0.0 0.00 0.00 0.00 54 1013.3
20260906003516 31 89 0.0 0.0 0.00 0.00 0.00 52 1013.3
20260906003012 31 89 0.0 0.0 0.00 0.00 0.00 51 1013.3
20260906002507 32 89 0.0 0.0 0.00 0.00 0.00 51 1013.5
20260906002002 32 89 0.0 0.0 0.00 0.00 0.00 50 1013.7
20260906001458 32 89 0.0 0.0 0.00 0.00 0.00 49 1013.6
20260906000952 32 89 0.0 0.0 0.00 0.00 0.00 49 1013.6
20260906000448 33 89 0.0 0.0 0.00 0.00 0.00 48 1013.3
20260905235948 33 89 0.0 0.0 0.00 0.00 0.00 46 1013.5
20260905235442 34 88 0.0 0.0 0.00 0.00 0.00 45 1013.5
20260905234937 35 88 0.0 0.0 0.00 0.00 0.00 44 1013.5
20260905234432 35 88 0.0 0.0 0.00 0.00 0.00 43 1013.3
20260905233927 36 88 0.0 0.0 0.00 0.00 0.00 41 1013.5
20260905233422 36 89 0.0 0.0 0.00 0.00 0.00 40 1013.6
20260905232921 37 89 0.0 0.0 0.00 0.00 0.00 39 1013.3
20260905232417 37 95 0.0 0.0 0.00 0.00 0.00 38 1013.5
20260905231906 37 90 0.0 0.0 0.00 0.00 0.00 37 1013.5
20260905231402 38 95 0.0 0.0 0.00 0.00 0.00 37 1013.6
20260905230859 38 109 0.0 0.0 0.00 0.00 0.00 36 1013.7
20260905230356 38 90 0.0 0.0 0.00 0.00 0.00 36 1013.8
20260905225850 39 101 0.0 0.0 0.00 0.00 0.00 35 1013.8
20260905225345 39 94 0.0 0.0 0.00 0.00 0.00 35 1013.5
20260905224840 40 97 0.0 0.0 0.00 0.00 0.00 34 1013.7
20260905224336 41 115 0.0 0.0 0.00 0.00 0.00 33 1013.7
20260905223835 41 100 0.0 0.0 0.00 0.00 0.00 33 1013.5
20260905223333 41 86 0.0 0.0 0.00 0.00 0.00 33 1013.6
20260905222828 41 93 0.0 0.0 0.00 0.00 0.00 34 1013.7
20260905222327 41 91 0.0 0.0 0.00 0.00 0.00 33 1013.6
20260905221823 42 166 0.0 0.0 0.00 0.00 0.00 32 1013.5
20260905221320 41 116 0.0 1.6 0.00 0.00 0.00 32 1013.8
20260905220815 41 96 0.0 0.0 0.00 0.00 0.00 33 1013.5
20260905220312 41 163 0.0 1.6 0.00 0.00 0.00 33 1013.6
20260905215810 41 116 0.0 0.0 0.00 0.00 0.00 33 1013.7
20260905215306 41 143 0.0 1.6 0.00 0.00 0.00 33 1013.6
20260905214802 41 90 0.0 0.0 0.00 0.00 0.00 33 1013.5
20260905214258 41 101 0.0 0.0 0.00 0.00 0.00 33 1013.7
20260905213753 41 109 0.0 0.0 0.00 0.00 0.00 33 1014.0
20260905213249 41 103 0.0 0.0 0.00 0.00 0.00 33 1013.7
20260905212744 41 90 0.0 0.0 0.00 0.00 0.00 32 1013.9
20260905212238 42 113 0.0 1.6 0.00 0.00 0.00 32 1013.9
20260905211737 42 97 0.0 1.6 0.00 0.00 0.00 32 1014.1
20260905211233 41 89 0.0 0.0 0.00 0.00 0.00 32 1014.1
20260905210730 41 103 0.0 0.0 0.00 0.00 0.00 34 1014.1
20260905210229 41 116 0.0 0.0 0.00 0.00 0.00 33 1014.2
20260905205728 41 114 0.0 0.0 0.00 0.00 0.00 32 1014.3
20260905205222 41 77 0.0 0.0 0.00 0.00 0.00 33 1014.3
20260905204716 41 95 3.2 4.8 0.00 0.00 0.00 33 1014.3
20260905204212 41 96 0.0 0.0 0.00 0.00 0.00 33 1014.4
20260905203706 41 96 1.6 3.2 0.00 0.00 0.00 33 1014.4
20260905203202 41 91 0.0 0.0 0.00 0.00 0.00 32 1014.6
20260905202657 41 127 0.0 1.6 0.00 0.00 0.00 32 1014.5
20260905202152 41 107 0.0 0.0 0.00 0.00 0.00 32 1014.8
20260905201648 41 88 0.0 0.0 0.00 0.00 0.00 34 1014.7
20260905201147 41 98 0.0 0.0 0.00 0.00 0.00 34 1014.8
20260905200643 41 283 0.0 1.6 0.00 0.00 0.00 33 1014.7
20260905200138 41 167 0.0 0.0 0.00 0.00 0.00 34 1014.6
20260905195636 41 145 0.0 0.0 0.00 0.00 0.00 34 1015.0
20260905195131 41 84 0.0 0.0 0.00 0.00 0.00 35 1015.0
20260905194627 41 173 1.6 3.2 0.00 0.00 0.00 35 1015.0
20260905194126 41 92 1.6 1.6 0.00 0.00 0.00 35 1015.1
20260905193621 41 116 0.0 1.6 0.00 0.00 0.00 34 1015.1
20260905193115 41 95 0.0 0.0 0.00 0.00 0.00 34 1015.3
20260905192611 41 137 0.0 1.6 0.00 0.00 0.00 34 1015.2
20260905192107 41 93 0.0 0.0 0.00 0.00 0.00 35 1015.3
20260905191606 41 118 0.0 0.0 0.00 0.00 0.00 35 1015.4
20260905191105 40 34 4.8 9.7 0.00 0.00 0.00 35 1015.3
20260905190603 40 127 0.0 1.6 0.00 0.00 0.00 35 1015.5
20260905185601 40 161 1.6 3.2 0.00 0.00 0.00 35 1015.7
20260905185056 40 94 0.0 0.0 0.00 0.00 0.00 36 1015.7
20260905184551 40 112 0.0 0.0 0.00 0.00 0.00 35 1015.8